LUCH (OLYMP)

Last updated on Jan. 15, 2021, 6:31 a.m. UTC

1 40258U 14058A   21014.90404708 -.00000033  00000-0  00000-0 0  9994
2 40258   0.0387 111.9302 0000235 248.7004  76.3775  1.00275486 21147
UTC
Height (km)
Latitude
Longitude
Inclination
Orbital Period
UTC large
Height (km)
Speed (km/s)
/
Latitude / Longitude
Inclination (degrees)
Orbital Period (minutes)
Azimuth
Elevation
Range (km)
Doppler Factor
iOS Compass Heading
iOS Angle

Next 30 passes for location: Hong Kong

Rise time Rise Azimuth (degrees) Set time Set Azimuth (degrees) Duration Max altitude (degrees)

No matching passes for this satellites